GFSSE_925_rhum_231.txt.gz
RH
63 48 50 51 52 50 54 50 43 34 30 28 27 25 24 27 31 34 34 32 33 35 45 56 66 70 66 59 52 44 41 45 51 52 57 64 73 85 91 89 79 78 80
47 54 48 51 52 52 54 54 48 41 33 30 30 27 26 29 32 32 30 30 32 38 48 56 61 55 45 43 39 36 39 42 46 52 60 70 79 84 92 93 77 79 78
46 52 50 51 51 53 54 55 52 48 38 34 32 32 29 31 29 31 33 34 38 48 53 60 60 52 39 37 35 37 36 44 59 59 59 67 82 86 89 79 77 82 82
48 51 48 48 52 54 55 54 53 51 47 39 36 34 32 32 32 36 39 39 40 48 53 60 63 56 39 36 40 37 38 59 76 80 72 63 76 84 80 76 78 84 85
50 49 48 46 46 50 52 54 54 55 53 48 41 37 36 33 36 37 39 43 47 52 59 63 65 55 41 40 41 37 41 66 75 83 88 70 68 77 78 78 82 86 86
59 50 51 48 48 48 48 49 52 54 56 56 50 42 38 37 38 38 40 47 49 59 68 67 62 58 44 42 40 39 43 65 73 86 81 74 64 77 80 81 88 91 87
60 55 54 54 53 52 51 50 51 52 54 58 58 52 44 40 38 40 40 46 55 56 61 65 60 60 49 45 43 40 46 54 70 84 83 74 67 78 89 91 91 85 89
51 56 60 64 58 57 56 53 51 51 52 53 58 60 53 44 40 39 42 47 56 62 66 69 64 65 52 49 47 41 49 59 72 82 73 71 72 82 93 91 89 87 87
58 63 64 66 68 64 61 58 55 55 55 56 62 66 62 53 44 43 47 50 54 56 60 59 58 60 53 51 50 45 51 61 74 79 73 62 65 75 100 96 90 89 89
57 60 69 72 62 63 65 63 62 62 61 61 66 70 71 65 51 48 49 52 54 57 56 60 58 58 53 53 54 47 51 56 69 78 77 64 70 72 95 96 94 90 90
65 67 72 76 72 57 61 65 66 66 68 71 80 81 80 74 65 58 55 56 60 61 60 62 59 55 52 55 55 53 53 57 66 72 79 68 70 73 90 91 97 92 88
60 76 77 78 78 74 66 61 62 63 61 68 95 99 96 86 79 74 67 64 63 64 65 65 65 61 60 56 59 61 60 55 62 71 77 74 72 79 89 88 91 98 86
52 52 58 71 81 77 76 72 71 72 73 70 62 83 97 97 95 89 82 72 74 76 76 77 75 75 67 57 57 62 63 56 61 73 72 74 74 91 99 86 86 94 98
58 63 68 59 59 70 80 74 74 76 78 79 76 76 78 86 91 96 96 85 80 80 81 79 76 76 72 62 53 62 66 58 58 75 74 73 75 92 100 89 86 90 96
54 59 63 68 73 66 65 76 75 77 82 79 84 83 82 83 82 83 89 90 88 87 86 82 79 77 78 69 67 66 64 63 64 74 75 77 78 90 98 100 85 85 87
56 60 59 58 68 76 83 84 86 84 82 85 83 83 86 87 83 85 85 82 89 92 93 82 78 81 83 79 68 85 77 65 72 78 77 77 78 83 98 99 99 87 84
42 45 46 50 59 62 71 80 88 93 90 89 90 89 84 79 76 77 74 78 78 82 95 99 90 91 92 83 72 78 85 71 74 82 78 76 83 80 93 98 91 82 85
35 35 34 34 41 54 61 62 65 67 75 82 89 97 99 96 95 93 86 80 78 78 80 98 100 100 92 83 84 78 86 84 83 86 81 78 81 94 93 91 82 78 85
32 33 35 36 35 34 36 40 47 50 49 49 50 57 69 81 88 93 97 95 91 86 84 96 100 100 100 98 88 90 88 88 89 93 87 80 84 94 93 87 76 76 80
33 34 35 35 34 40 34 40 36 39 37 36 42 53 54 48 46 65 85 91 90 92 96 99 100 100 99 96 100 100 94 85 92 97 92 87 85 90 89 82 75 77 77
31 34 38 37 36 41 38 43 44 49 43 41 45 61 60 54 52 55 51 72 99 99 98 99 100 100 100 98 98 100 100 100 100 100 96 97 96 92 88 82 78 78 80
33 34 36 36 36 38 40 44 47 46 50 50 53 48 51 58 68 59 51 54 57 88 100 100 100 100 100 100 94 98 99 100 100 100 98 100 91 97 91 83 83 80 81
34 36 36 34 36 37 36 38 44 50 52 54 57 57 56 58 58 60 66 59 62 59 70 93 100 100 98 100 99 90 99 96 99 100 100 100 100 100 99 91 87 82 83
35 32 31 31 34 35 39 43 46 54 61 59 58 58 58 59 54 49 49 71 63 70 63 64 79 86 100 98 100 99 90 89 99 99 99 100 100 100 99 100 93 90 86
29 29 29 29 34 35 36 38 42 50 53 63 65 67 66 63 65 59 58 66 68 74 76 63 70 70 77 100 99 100 100 99 92 98 94 99 100 100 100 92 100 94 88
27 27 31 33 34 36 37 37 44 52 58 59 57 69 72 73 72 72 70 69 70 76 81 82 77 68 65 62 86 100 94 95 97 97 95 89 90 100 100 100 100 98 95

GFSSE_925_rhum_234.txt.gz
RH
61 54 50 49 49 46 41 35 30 28 27 24 23 21 25 30 35 37 38 40 43 50 59 66 70 72 69 59 54 52 49 54 63 71 76 75 80 86 84 78 76 81 81
46 53 48 50 49 51 47 41 33 29 29 28 24 22 22 26 32 35 38 38 38 42 47 52 56 56 50 47 44 47 52 59 64 68 70 79 87 90 90 81 76 79 80
44 52 49 44 48 52 50 45 40 32 29 29 27 23 24 26 28 29 31 31 31 38 45 51 53 44 39 39 40 45 54 61 64 65 68 78 88 91 87 81 80 78 81
42 46 46 44 49 51 51 49 46 40 34 31 30 27 26 28 28 30 31 30 33 40 46 51 52 46 36 35 39 44 61 72 71 70 73 78 85 87 82 81 82 81 81
45 47 48 49 50 52 53 51 49 48 42 37 33 32 29 32 31 31 32 33 35 40 43 48 51 50 36 35 39 44 66 82 79 82 76 75 77 82 81 81 80 83 83
49 50 49 50 51 54 54 54 52 51 50 46 40 36 35 32 34 35 36 36 36 44 49 52 52 49 39 36 40 47 65 76 84 85 84 75 70 74 80 82 83 84 85
50 50 50 50 51 52 54 54 53 54 54 54 50 44 39 36 36 38 40 42 47 54 57 54 54 53 46 36 39 51 58 74 85 83 81 73 66 68 75 82 92 85 86
52 54 53 53 53 52 52 53 54 55 55 57 59 55 48 42 40 40 44 49 50 55 58 57 59 60 53 38 37 50 50 64 82 85 81 72 69 73 81 84 89 86 88
55 57 59 60 59 58 56 55 55 57 59 59 62 64 60 52 47 46 48 51 55 59 60 63 62 62 54 41 37 46 54 61 80 87 82 76 73 79 99 91 88 87 87
67 66 68 70 70 66 62 61 59 60 62 65 69 72 71 68 58 52 52 55 58 59 59 65 61 61 54 42 37 41 52 62 80 85 81 76 73 72 95 98 88 89 87
88 85 79 79 75 68 66 63 62 62 62 64 75 85 87 82 78 69 60 56 54 55 59 62 60 59 56 47 40 42 49 59 66 78 82 77 80 75 89 92 94 90 89
67 72 96 92 83 71 68 64 62 62 59 57 60 77 95 93 89 88 74 65 61 60 64 65 64 62 62 56 46 47 51 54 62 70 80 81 84 84 89 86 93 92 91
71 66 72 84 97 91 89 78 71 63 62 63 62 61 65 97 99 91 85 82 78 75 78 78 77 75 68 59 50 46 50 53 54 64 74 81 82 85 100 86 90 91 95
66 66 69 74 73 74 85 92 83 77 75 75 74 74 74 77 86 82 86 85 86 82 82 83 79 73 70 66 54 45 49 54 51 61 67 77 84 84 99 90 85 89 97
58 54 60 63 74 81 85 94 96 95 94 90 88 88 85 84 83 79 75 78 84 91 91 85 81 80 78 74 68 56 50 57 55 60 66 76 85 86 97 98 98 98 90
43 44 52 56 61 68 75 80 85 93 97 98 99 100 100 100 100 98 96 94 95 97 96 89 84 84 87 84 77 68 54 55 58 59 68 74 87 88 98 97 99 100 99
35 34 36 35 43 50 47 57 57 60 58 62 64 77 90 92 96 99 97 98 99 94 87 94 100 100 100 98 90 76 70 58 59 64 70 78 88 90 94 97 97 99 100
36 36 37 38 35 37 38 37 39 40 36 39 48 56 56 53 52 62 80 87 94 99 100 100 100 100 100 100 100 91 80 79 76 69 71 84 86 95 96 99 98 98 98
36 35 34 40 38 34 34 32 31 30 31 40 45 65 62 50 68 67 58 51 51 86 100 100 100 100 100 100 100 100 97 95 96 84 80 86 86 92 98 100 99 98 97
35 34 35 39 40 37 36 33 31 31 36 38 43 46 45 46 51 56 62 66 60 53 67 99 100 100 100 100 100 100 100 100 100 96 87 88 90 95 97 100 100 99 92
36 35 32 35 38 35 33 36 37 47 46 46 45 44 43 42 40 43 49 50 60 71 57 58 67 100 100 100 100 100 100 100 100 100 93 94 94 96 97 99 100 97 88
37 35 32 34 36 36 34 37 42 39 43 50 47 49 44 46 50 45 44 51 54 60 75 61 54 75 83 99 96 94 99 99 100 100 100 100 100 99 100 100 100 92 84
36 32 30 34 35 34 34 35 37 42 46 52 56 53 48 54 63 58 55 66 74 75 83 76 71 77 89 76 96 94 99 93 99 99 100 100 100 100 100 100 100 90 83
32 30 31 34 34 33 32 35 38 48 58 55 52 51 49 54 62 68 56 58 69 76 85 87 81 79 83 93 84 83 99 99 98 100 99 100 100 100 100 100 100 96 88
29 29 31 30 29 31 38 40 43 51 55 56 54 55 57 60 67 64 58 58 62 64 82 82 90 93 92 86 91 82 82 96 100 99 99 98 100 100 100 92 98 99 94
29 28 28 28 32 39 39 39 44 49 48 55 63 75 74 77 77 72 67 75 90 92 84 83 81 85 100 100 96 83 80 92 88 92 98 94 93 100 100 100 99 100 100

GFSSE_925_rhum_237.txt.gz
RH
52 51 51 46 40 33 28 28 26 21 20 19 24 40 52 54 51 44 45 47 47 54 60 67 72 69 62 58 55 58 58 60 71 90 91 94 95 88 82 82 80 83 83
49 51 52 46 43 38 31 28 28 25 21 20 20 28 37 42 44 41 37 40 45 52 56 62 65 62 57 51 48 54 58 60 68 94 89 90 89 85 80 78 76 80 83
49 51 51 49 45 41 37 30 28 29 26 23 22 22 23 31 35 35 37 40 46 49 51 55 54 44 43 45 49 57 60 65 72 80 83 84 89 89 82 80 78 78 80
45 50 50 51 50 47 44 38 33 30 30 28 25 27 27 27 30 33 36 38 43 46 48 52 50 40 40 45 51 59 64 70 72 75 78 84 89 85 80 80 82 81 81
49 48 49 51 52 51 50 47 40 34 31 31 30 27 29 28 28 32 34 35 40 45 49 53 52 42 37 46 51 64 72 75 74 76 77 80 84 84 78 80 84 82 84
47 51 49 52 56 55 55 52 50 43 38 35 33 32 30 32 32 32 32 34 38 42 46 51 53 48 37 45 49 65 79 81 81 81 76 80 81 81 78 80 81 82 84
45 50 48 51 54 57 59 57 56 54 50 44 40 37 36 34 36 37 37 36 35 39 48 52 56 53 40 42 46 56 74 85 80 78 79 73 76 76 73 76 81 84 85
41 46 46 48 52 55 57 59 60 59 58 57 53 48 44 41 39 40 41 42 42 45 49 55 58 53 48 40 45 52 69 79 83 76 77 73 74 76 73 77 84 83 85
53 54 54 54 55 55 56 58 58 59 61 62 64 63 56 52 49 47 48 48 48 49 52 60 60 58 56 43 42 52 57 72 80 84 80 77 86 92 99 90 85 83 85
70 65 58 58 58 59 61 61 60 60 60 61 64 67 69 68 64 62 56 54 52 53 55 57 59 63 62 54 42 48 59 63 74 84 84 79 92 92 100 98 87 84 84
95 90 82 78 77 74 68 65 64 63 62 61 63 64 71 77 78 72 67 62 59 61 64 65 66 69 68 61 50 47 55 66 73 83 86 83 88 95 100 88 98 86 84
85 95 100 98 94 88 86 77 73 68 68 64 64 64 66 76 81 82 83 77 71 69 70 70 71 72 73 71 60 53 57 61 70 81 82 84 81 94 99 89 85 87 85
78 82 94 99 98 97 92 83 78 79 90 80 79 73 70 72 79 98 98 90 90 82 78 78 78 80 77 74 66 56 51 56 62 69 75 81 83 87 99 99 81 83 86
64 68 76 80 83 90 100 100 100 97 93 100 100 95 96 97 98 95 100 99 96 84 84 80 80 80 79 78 71 62 51 47 53 62 67 75 82 83 97 98 88 80 80
54 56 64 69 75 77 89 96 99 98 99 100 100 100 100 100 99 100 100 100 99 99 96 98 97 87 85 84 85 79 66 50 48 50 61 72 76 85 89 95 99 97 79
44 43 47 50 56 59 55 66 73 64 64 63 65 67 69 74 72 82 96 99 100 100 100 100 100 100 100 96 97 94 83 71 58 55 56 67 71 81 88 91 95 99 99
37 36 36 38 36 37 38 34 34 38 44 56 63 62 52 59 64 62 62 61 57 66 93 99 100 100 100 100 100 100 100 91 78 66 62 62 72 82 87 91 92 96 97
40 39 36 34 32 32 31 30 32 34 40 42 42 44 43 42 45 50 53 57 62 61 49 62 98 99 100 100 100 99 100 100 95 86 72 63 69 77 93 92 89 93 94
40 42 37 34 33 31 30 32 34 33 33 33 31 31 31 29 30 30 31 35 39 45 58 63 60 84 100 100 100 100 100 100 98 100 100 78 68 76 98 97 92 95 95
38 37 34 32 28 26 26 28 28 24 26 29 28 22 19 18 18 24 28 27 45 50 51 54 70 62 68 84 100 100 100 100 100 100 100 99 86 82 88 100 100 96 96
34 34 30 28 31 30 28 28 25 27 34 33 30 32 32 30 24 20 25 37 50 72 78 74 78 82 71 66 67 89 100 100 100 100 100 100 99 96 97 100 100 100 100
34 32 31 31 33 33 31 32 32 40 45 47 46 45 40 29 28 31 37 43 42 53 64 73 86 100 94 83 85 81 85 90 100 99 100 100 100 100 99 100 100 100 100
33 31 30 32 32 31 33 31 33 40 45 50 45 40 40 47 56 62 57 50 49 52 62 63 78 99 100 96 91 90 93 96 92 90 100 100 100 100 99 100 99 100 100
32 32 32 30 30 33 34 36 44 52 56 49 47 52 57 64 72 78 77 69 68 77 79 86 84 83 82 99 98 91 82 87 86 88 81 95 100 98 99 100 100 100 100
33 33 31 31 36 39 41 43 44 42 43 43 46 56 70 76 83 85 84 79 87 95 94 99 81 77 80 92 91 96 95 90 83 94 90 84 80 90 98 98 100 100 100
34 30 30 35 38 41 44 44 43 42 43 55 75 83 89 86 90 92 90 90 89 93 87 83 80 84 83 83 92 92 88 96 90 96 97 87 87 79 84 100 100 100 100

GFSSE_925_rhum_240.txt.gz
RH
50 50 46 40 34 31 28 19 17 19 28 41 46 49 52 56 46 41 44 47 57 66 72 74 66 62 60 59 59 62 65 68 72 89 90 98 91 88 81 78 77 85 84
38 49 48 42 34 31 30 23 21 20 22 32 44 49 53 52 46 43 45 52 62 69 71 74 74 67 61 55 53 56 66 72 77 87 85 88 88 80 77 75 79 85 84
35 48 50 45 38 33 32 30 26 24 21 24 31 40 43 42 41 41 46 50 58 63 65 66 62 57 52 52 54 58 65 68 81 86 85 88 86 76 74 75 74 80 84
42 49 53 51 44 38 33 31 30 28 25 25 26 27 30 35 38 38 40 46 50 53 54 54 50 47 47 55 58 60 67 68 73 82 83 91 88 76 77 76 76 76 83
51 52 55 54 50 46 40 34 33 33 31 28 30 30 30 33 32 34 37 37 39 42 47 51 49 42 44 54 57 65 66 69 73 77 82 85 86 82 78 80 79 79 82
53 56 56 54 54 52 47 43 38 36 37 36 33 35 35 34 32 32 31 32 39 46 50 53 52 43 40 53 58 72 73 74 72 72 79 82 83 99 83 80 80 81 86
53 52 51 53 54 57 55 52 50 44 42 41 40 40 40 39 38 37 36 35 36 39 46 52 54 48 39 47 55 74 79 78 80 79 74 73 80 98 90 79 80 81 83
72 71 66 64 62 62 62 60 58 58 55 51 47 45 44 44 44 45 45 43 42 41 44 50 55 53 44 40 53 59 78 81 78 77 78 70 74 80 88 77 78 80 82
67 63 64 64 63 64 66 67 66 65 64 63 62 59 54 51 49 48 50 50 49 49 49 54 56 56 54 45 47 56 67 77 78 77 78 74 71 91 99 92 80 79 78
64 65 65 65 68 72 72 68 68 67 66 67 68 68 69 66 60 57 55 56 56 56 60 60 62 65 63 59 47 51 61 69 79 80 80 77 74 94 99 97 84 81 80
78 73 70 72 74 75 73 73 72 73 77 79 76 74 74 76 77 74 70 67 64 64 67 69 71 74 72 68 64 50 57 66 63 70 82 82 78 89 97 99 100 81 82
95 97 93 97 96 89 88 85 84 88 98 100 100 99 98 97 97 96 89 82 80 77 72 73 78 81 85 82 74 66 55 60 71 67 77 85 82 89 99 99 91 82 81
91 94 91 94 93 91 83 87 89 99 99 98 96 99 100 98 96 98 97 99 100 98 91 83 80 86 90 86 86 81 65 56 62 72 73 85 86 84 94 97 92 76 82
82 86 88 88 90 94 91 91 100 99 99 98 99 99 97 98 99 100 100 100 99 98 100 97 91 86 87 91 98 96 74 63 53 62 73 79 85 86 88 89 96 90 84
73 77 78 82 88 97 95 96 95 93 95 91 89 89 89 88 88 91 94 96 98 99 100 100 100 100 99 100 100 100 93 75 65 58 60 68 76 82 84 87 90 99 87
52 54 59 63 66 73 76 73 70 70 68 70 68 63 66 67 67 67 69 68 70 66 69 82 97 99 99 100 100 99 99 100 94 82 68 63 71 77 81 86 90 92 99
46 42 42 42 42 41 45 53 57 53 49 47 44 43 41 40 42 39 43 43 45 47 50 51 57 96 100 99 100 99 99 98 99 97 88 77 65 75 79 85 89 92 91
42 39 37 34 31 31 32 32 32 31 30 30 28 25 22 20 19 20 22 22 24 29 37 44 58 60 57 80 98 100 99 100 100 100 99 92 82 67 70 77 89 93 90
37 35 33 31 30 29 26 24 23 24 24 24 23 23 24 22 19 15 17 23 28 31 35 45 46 63 71 66 72 60 81 100 99 99 100 99 94 87 80 65 82 94 93
37 33 30 29 30 28 25 23 22 25 27 29 32 32 30 26 22 20 20 23 33 32 37 57 63 59 76 84 81 63 56 50 94 100 98 100 100 100 93 91 78 96 97
35 32 32 31 32 27 25 24 29 35 38 38 37 34 32 31 29 26 26 30 34 41 43 49 72 96 99 96 87 84 69 40 43 53 90 100 99 99 100 97 98 100 100
34 34 33 32 30 28 25 28 31 34 41 39 36 34 34 34 40 48 59 58 49 54 46 46 64 98 89 81 90 91 97 68 84 80 73 85 99 100 100 100 99 98 98
38 36 34 33 31 32 33 32 35 40 40 42 41 43 56 66 71 77 82 79 70 69 78 74 89 100 97 96 89 88 94 94 85 67 61 60 59 70 96 99 99 100 97
36 37 37 35 34 36 36 32 36 41 45 49 56 66 74 82 86 85 88 87 87 96 95 98 100 91 100 99 89 86 94 90 94 90 68 69 68 62 52 59 89 99 99
33 35 33 33 34 32 36 36 38 40 43 50 64 73 70 73 81 88 88 88 87 92 89 86 84 82 85 91 93 94 88 88 83 96 94 79 71 74 69 64 65 78 90
35 42 35 34 29 33 40 40 41 42 45 50 66 76 74 72 72 76 75 83 86 82 80 84 90 87 83 82 86 87 94 92 87 92 91 83 87 84 81 73 81 82 84

GFSSE_925_rhum_243.txt.gz
RH
59 52 44 44 39 35 32 36 42 48 51 52 48 42 45 41 39 45 50 57 65 83 76 68 70 70 70 68 69 68 71 75 76 86 87 90 90 81 81 81 84 87 82
48 51 42 43 41 35 26 27 37 46 50 51 50 48 53 46 42 46 53 63 68 71 73 70 66 64 61 60 63 66 73 77 85 85 90 92 99 89 77 78 90 89 81
47 51 45 40 42 35 26 25 26 34 45 48 49 53 56 50 45 46 51 53 57 58 64 68 63 59 53 51 57 64 72 78 83 86 88 82 88 76 76 77 80 80 80
47 48 48 43 42 36 32 29 27 28 34 41 49 53 50 46 42 42 42 46 52 55 60 60 49 46 43 48 57 62 69 73 83 85 85 89 87 74 75 76 78 80 82
50 47 46 45 43 41 36 35 32 31 32 36 39 44 43 40 39 40 42 45 48 49 51 51 46 45 46 50 56 62 64 72 74 85 87 92 86 82 74 74 76 79 84
64 52 51 51 50 46 42 39 36 35 34 34 36 38 38 39 41 42 42 41 43 44 45 50 50 45 45 48 54 65 65 70 74 84 86 86 90 92 78 74 76 79 79
66 64 60 59 57 54 51 47 42 40 38 38 39 40 41 43 44 44 43 44 47 50 50 50 52 50 46 49 54 69 72 72 83 83 84 89 93 98 94 76 75 78 84
63 62 63 64 62 62 59 57 55 50 46 45 45 46 46 46 47 47 46 46 46 48 54 57 57 59 53 54 53 68 77 78 81 84 86 86 78 83 98 78 79 78 83
64 65 67 64 64 66 68 67 66 65 65 65 62 58 56 55 55 54 55 55 54 54 57 58 60 64 64 58 60 59 76 79 88 83 85 84 70 74 98 98 82 81 81
70 66 66 66 65 66 66 65 66 66 69 71 74 75 77 74 70 70 68 66 66 66 68 69 67 64 64 66 67 65 63 74 84 84 88 83 72 73 98 98 94 84 82
83 75 66 63 66 65 62 64 65 68 70 72 73 79 84 88 88 88 89 78 77 78 77 76 77 75 69 68 70 74 70 80 77 81 83 85 76 77 95 95 98 95 84
96 89 96 98 91 85 84 80 78 78 80 77 81 92 98 86 72 78 99 98 91 89 90 89 83 85 87 93 90 82 91 87 81 77 78 80 81 81 91 96 98 96 88
98 100 100 100 96 93 99 100 100 100 99 99 100 91 84 91 97 82 93 96 94 94 96 98 98 97 97 92 91 79 92 96 87 80 79 71 79 85 93 92 92 97 89
90 98 100 96 89 96 100 100 98 99 100 98 100 100 99 97 100 97 100 100 100 93 96 94 95 100 100 98 92 98 97 94 87 87 81 58 67 85 89 90 87 90 89
81 90 96 100 100 100 100 100 100 98 94 91 91 91 91 90 90 90 91 91 92 93 96 99 100 100 99 99 99 98 98 99 99 97 90 64 58 74 88 88 88 88 89
70 78 82 88 88 91 89 87 86 80 71 66 60 56 58 60 61 64 64 64 62 60 64 65 71 91 98 99 99 99 99 99 100 100 100 93 74 70 75 87 87 93 88
60 61 59 58 63 69 71 65 58 50 47 42 35 31 29 26 26 27 28 29 32 35 37 41 49 57 68 95 100 100 98 98 99 97 93 97 100 88 77 78 81 88 94
50 43 40 41 41 40 37 34 31 27 24 22 23 23 22 20 18 15 15 16 19 22 24 30 45 50 67 74 54 52 77 96 100 100 99 96 99 100 95 80 77 80 90
46 37 35 31 27 26 27 27 26 26 29 31 28 26 25 24 23 20 18 18 18 21 25 40 71 70 72 72 78 78 56 45 47 77 99 100 98 97 100 99 87 77 81
45 37 32 29 27 25 24 25 27 28 28 28 29 28 25 24 25 26 30 29 26 28 45 56 78 81 83 84 78 69 74 68 40 40 50 98 99 97 95 98 100 98 84
41 41 34 30 28 25 23 26 25 40 34 32 31 30 28 31 34 38 54 68 59 70 62 63 81 84 75 83 75 62 62 58 68 76 94 99 100 99 100 100 93 96 99
39 36 33 30 28 26 24 26 33 31 37 34 33 34 43 49 52 56 73 94 90 86 85 92 95 96 92 88 78 69 59 51 80 74 68 79 72 74 66 84 95 100 99
39 36 32 31 32 32 31 30 33 34 32 41 32 36 56 59 62 64 71 87 90 98 98 98 99 96 89 86 90 80 63 59 67 56 67 64 73 67 66 65 55 53 60
37 36 32 33 34 36 37 34 34 44 48 46 50 55 67 74 82 84 85 86 86 96 99 99 98 100 100 96 85 87 87 82 70 59 51 60 66 68 67 68 75 76 72
39 38 35 35 61 69 48 41 38 36 37 46 54 64 72 73 79 81 81 80 80 81 87 98 100 100 100 97 85 81 79 77 77 73 66 48 55 60 63 69 79 81 79
39 42 51 63 48 49 51 41 36 36 38 45 61 70 77 74 77 79 77 77 75 74 76 85 90 95 95 95 96 93 84 76 68 71 68 63 63 62 62 67 72 76 80

GFSSE_925_rhum_246.txt.gz
RH
42 61 43 40 40 43 48 49 52 51 58 53 42 39 37 38 41 47 60 72 80 68 70 65 67 65 62 62 64 64 72 74 80 83 85 85 77 74 80 75 77 79 74
46 64 42 37 34 36 44 48 50 55 58 54 43 43 41 38 42 49 55 62 66 67 64 62 61 59 55 56 57 61 68 77 86 86 85 90 98 80 74 85 80 85 71
54 63 45 39 34 33 38 41 52 54 59 55 46 48 47 42 43 44 48 55 63 70 69 64 61 56 48 44 50 61 69 76 79 79 75 61 72 77 76 80 79 82 82
56 61 62 43 37 32 33 32 48 54 53 53 51 56 52 45 44 46 53 64 64 62 61 54 46 44 42 44 49 59 68 76 82 74 68 57 67 75 75 76 78 82 83
56 55 65 42 40 35 33 30 35 42 48 53 54 55 50 45 47 48 50 54 56 57 57 54 44 41 43 51 56 62 69 78 76 76 57 61 62 76 74 76 77 81 85
53 55 50 42 42 38 36 33 32 36 38 42 44 46 47 48 50 52 53 55 56 57 57 56 48 42 45 51 56 62 67 69 70 58 58 71 63 71 73 77 89 88 88
56 68 63 48 47 43 40 38 37 36 35 36 40 41 42 43 45 45 47 50 54 60 63 63 60 50 44 52 61 68 69 70 82 56 57 67 70 67 84 74 77 80 82
71 74 78 54 53 52 48 44 41 40 39 39 39 40 41 43 44 46 48 50 52 56 62 70 71 64 52 48 57 73 76 72 73 57 58 59 78 68 99 76 75 78 83
78 81 84 83 71 62 58 55 52 48 46 45 45 46 47 48 51 52 53 54 55 58 62 64 71 77 71 57 48 55 73 79 82 56 61 57 71 68 98 99 80 79 82
82 85 86 86 89 92 74 66 63 62 62 61 60 60 59 57 58 59 58 59 60 60 62 66 69 73 79 77 67 53 54 65 79 59 56 56 70 70 86 96 94 82 84
76 81 84 83 84 89 93 97 86 83 76 72 76 75 76 86 87 85 79 78 66 62 63 65 69 71 76 80 78 76 63 61 52 52 51 58 71 73 75 94 91 91 85
72 96 94 94 92 96 87 99 99 96 84 86 92 99 99 93 88 88 91 93 90 85 80 76 72 72 74 72 71 78 84 66 58 52 49 56 68 75 75 81 88 91 90
74 94 99 99 99 98 99 98 99 98 98 98 99 98 97 92 94 97 93 93 92 97 91 93 92 90 75 69 64 72 67 70 67 62 53 56 62 70 80 85 86 91 92
72 83 90 100 99 100 99 100 100 99 96 96 99 98 96 99 99 99 99 98 97 99 96 93 83 90 95 95 88 86 83 76 69 66 62 64 67 63 76 88 87 88 89
72 82 86 96 100 99 100 100 100 99 96 96 93 96 98 100 98 96 97 88 86 86 85 95 99 100 98 98 99 97 94 92 88 83 78 75 77 75 68 76 88 90 87
70 78 83 86 95 98 97 95 89 79 76 66 64 67 67 75 81 79 74 70 69 70 71 74 76 81 93 98 99 98 96 95 94 98 97 96 90 86 82 75 81 87 92
61 68 74 82 85 83 79 72 60 50 43 38 34 30 31 34 55 54 50 51 54 57 60 57 62 60 63 66 86 97 98 99 97 97 96 99 96 94 90 88 79 77 86
49 52 53 59 66 67 65 57 52 51 49 48 48 49 56 55 48 49 45 48 55 49 48 49 49 50 48 51 57 65 75 81 93 97 99 96 94 96 99 94 90 86 74
43 45 46 48 49 51 52 51 54 55 47 45 45 47 56 56 59 55 49 52 61 47 47 48 42 47 46 44 42 45 50 56 60 62 73 94 97 98 96 97 91 87 90
42 42 40 41 46 49 46 47 47 48 48 48 47 52 60 60 63 62 54 66 66 52 47 49 55 47 50 47 44 39 42 43 44 44 46 51 68 94 99 98 98 98 94
43 41 42 44 45 38 35 36 38 43 47 45 51 62 66 69 73 70 65 69 71 63 65 64 59 52 47 44 53 39 36 40 44 39 36 57 82 92 92 95 95 99 97
42 41 41 41 42 41 38 45 40 41 46 52 56 67 68 76 81 74 81 77 78 75 73 72 72 70 59 54 57 49 38 35 42 57 56 53 61 62 65 67 67 71 76
43 44 39 40 43 41 41 40 39 39 36 35 41 46 66 77 83 86 84 86 86 87 95 97 96 91 74 64 65 57 45 40 47 39 44 47 48 50 47 47 50 57 65
41 46 44 48 50 51 48 48 46 39 35 42 46 56 64 80 86 89 91 87 87 85 94 98 96 95 86 77 63 58 62 56 53 47 38 40 45 49 50 50 48 52 58
39 46 47 53 56 54 65 67 51 45 60 58 54 61 61 64 77 82 87 89 85 81 84 86 88 94 88 86 70 61 60 58 56 55 50 40 35 37 40 44 47 51 56
37 42 53 54 75 71 58 44 41 54 46 49 57 65 64 67 70 76 83 84 82 79 80 78 80 80 80 78 77 78 72 62 52 50 49 47 45 45 45 49 52 51 50

GFSSE_925_rhum_252.txt.gz
RH
52 42 37 34 37 42 50 54 45 44 40 39 37 37 37 41 53 59 65 68 65 59 56 63 64 60 57 53 46 54 48 52 57 56 59 61 66 82 86 79 80 72 80
52 40 35 33 38 45 48 54 48 48 44 40 38 38 37 42 50 57 66 66 65 59 64 68 61 55 47 46 42 52 49 50 51 53 54 53 63 74 81 77 79 72 78
50 33 32 31 34 43 49 50 48 54 50 42 41 41 41 40 47 51 58 63 60 62 60 56 54 50 44 43 43 46 46 44 51 62 66 68 50 71 80 77 62 59 77
52 42 30 27 27 34 47 51 51 56 55 45 44 44 42 40 44 50 57 63 70 67 62 54 47 41 34 37 46 51 48 44 63 70 74 76 67 59 76 73 68 67 64
48 50 30 29 23 27 41 51 55 57 57 48 45 50 46 43 45 51 58 61 61 62 61 52 41 38 35 41 44 47 47 42 52 66 71 70 61 47 62 71 70 74 83
40 53 36 32 25 26 34 48 56 59 57 52 50 56 49 47 47 47 51 55 55 55 56 52 41 37 38 43 44 46 42 36 51 68 68 57 64 48 51 70 92 86 90
55 51 36 35 29 28 32 40 49 51 50 49 49 50 44 40 40 43 46 49 53 56 59 60 52 45 41 40 41 47 45 43 44 62 70 49 48 64 47 65 85 82 82
64 56 37 37 33 31 32 35 41 45 49 51 51 47 44 42 42 45 47 49 52 55 60 62 61 54 47 44 45 49 49 48 54 66 57 52 53 56 42 54 76 79 76
68 65 46 44 41 39 38 38 37 39 43 45 46 47 48 50 52 52 52 53 55 58 64 69 66 64 58 52 49 47 53 53 53 61 63 52 59 58 46 47 64 71 74
71 76 72 68 51 49 50 48 47 46 45 45 46 47 49 52 52 50 51 53 52 56 61 66 72 66 65 64 58 52 47 52 52 48 55 54 60 60 55 50 59 70 74
69 76 76 80 81 79 79 63 60 59 57 58 59 60 61 61 69 65 61 62 73 65 61 62 63 68 66 67 67 63 56 50 45 50 50 54 59 58 59 55 59 65 73
64 68 69 71 77 82 91 80 87 83 90 96 98 97 90 86 83 86 86 84 82 79 78 71 70 72 76 78 80 71 65 59 62 59 54 49 56 57 59 59 60 71 73
62 70 75 84 91 85 94 97 94 100 100 99 99 99 98 98 95 90 88 91 91 95 87 89 88 84 81 83 80 76 73 71 75 69 57 50 51 50 53 54 57 70 79
78 74 83 91 90 96 99 97 97 96 99 99 99 100 100 99 100 99 98 98 94 93 94 90 90 90 90 87 83 77 78 80 81 77 65 68 58 57 54 54 50 59 79
92 92 98 98 96 98 98 99 97 95 96 95 91 93 92 90 91 84 87 82 84 82 73 76 75 71 80 82 83 83 79 76 80 77 76 68 79 70 64 59 59 54 66
84 94 92 92 93 99 99 98 90 82 72 67 58 54 55 61 66 67 60 62 59 65 70 60 59 60 62 63 67 70 72 80 82 88 84 75 76 84 81 76 72 70 59
71 81 88 85 80 79 75 70 63 55 53 51 51 46 49 48 46 51 50 52 56 55 49 47 45 46 46 46 47 48 50 63 70 66 82 92 87 79 79 89 83 81 79
58 65 67 75 76 73 63 57 54 51 48 47 48 45 50 43 47 50 50 52 56 49 50 47 46 45 47 46 46 45 43 41 42 53 65 65 82 89 88 85 85 90 84
54 61 66 70 70 63 58 54 49 44 44 45 46 50 53 37 27 40 58 60 63 64 58 55 58 55 56 54 50 44 39 38 41 42 42 45 59 70 77 85 86 86 87
50 54 55 55 51 49 46 46 44 43 42 48 46 33 28 26 20 26 32 44 66 67 66 68 69 66 62 58 55 51 46 44 42 37 35 38 41 42 51 67 82 89 99
46 45 48 49 46 44 44 45 45 44 42 40 44 44 38 35 29 38 32 42 71 70 71 75 80 80 77 66 61 55 52 45 39 44 43 42 40 39 38 62 78 84 92
43 41 44 48 43 41 38 39 37 34 42 44 48 53 54 55 47 52 47 63 75 78 77 74 82 84 73 72 76 68 74 51 54 48 40 45 53 48 49 60 68 70 72
43 42 42 42 41 40 39 43 43 46 47 46 55 57 57 61 56 45 54 63 78 79 76 81 84 87 88 81 73 76 79 75 64 50 45 46 44 44 44 48 48 46 44
42 42 38 42 44 43 45 46 46 49 54 65 62 52 47 43 54 68 76 77 82 84 80 77 78 80 82 82 76 67 66 65 80 81 51 51 44 37 39 43 46 44 47
40 42 40 43 45 49 61 70 61 65 59 56 57 61 56 52 53 56 65 74 80 82 80 78 79 78 78 76 76 74 69 63 60 72 76 61 48 46 47 48 50 48 47
36 40 44 46 45 55 71 62 61 62 65 62 60 55 51 50 49 53 60 67 74 76 82 82 80 80 78 79 77 74 75 71 68 66 73 64 61 50 50 49 44 44 49

GFSSE_925_rhum_258.txt.gz
RH
47 47 49 44 43 44 41 37 34 29 26 28 33 34 35 38 39 40 38 42 48 53 61 61 59 56 50 56 52 51 56 57 54 56 67 73 76 80 80 76 80 82 82
41 43 44 43 43 45 42 39 36 35 32 29 31 35 39 43 48 48 44 42 45 56 59 56 49 44 44 51 52 54 57 57 54 57 63 73 76 80 79 71 79 79 76
40 39 41 38 43 48 45 44 39 38 38 37 38 44 49 54 58 59 58 57 60 62 57 53 47 42 44 50 50 53 58 63 63 61 60 68 73 72 72 61 73 78 77
35 36 38 42 45 48 46 50 48 43 42 42 40 38 45 52 60 64 66 64 61 57 54 46 42 38 38 41 47 57 66 73 76 78 79 69 73 72 63 60 66 68 78
33 34 40 44 49 50 47 51 52 46 44 46 45 43 43 48 51 55 56 54 55 54 49 42 36 35 36 40 42 50 57 72 78 83 85 90 74 70 58 57 60 64 75
33 33 35 42 47 48 47 50 50 50 46 47 48 44 40 40 44 44 47 50 50 49 47 44 38 34 34 36 37 44 50 58 68 73 80 86 85 66 62 53 61 60 65
35 34 33 34 45 48 47 48 50 51 47 47 52 50 48 48 49 52 57 59 57 58 59 55 49 42 36 32 30 34 40 45 52 60 69 78 79 58 60 52 56 74 64
36 39 37 41 46 51 50 50 50 52 52 50 54 52 48 45 44 47 48 48 50 50 49 49 48 47 45 39 36 33 40 43 46 52 65 72 80 67 62 49 49 58 73
44 46 48 49 51 54 60 60 59 60 61 62 66 64 57 55 52 51 49 49 49 48 48 49 48 48 49 49 44 38 36 43 48 50 59 64 73 74 66 54 44 51 62
45 42 46 46 44 47 49 50 52 57 62 66 66 62 60 58 58 57 57 54 54 55 54 54 55 56 56 55 54 52 48 41 40 46 46 48 66 77 71 55 49 48 53
82 70 71 63 54 50 49 53 55 60 61 60 61 68 70 70 73 75 81 76 70 67 70 70 70 69 69 67 64 62 63 56 49 48 49 42 45 52 74 68 54 51 49
47 40 55 74 78 79 72 77 72 72 78 82 93 97 95 96 98 97 98 99 99 96 96 95 90 88 87 81 73 71 71 67 67 68 56 58 55 62 74 74 63 56 53
31 29 35 75 74 80 94 97 100 98 96 93 92 96 98 96 95 90 90 95 96 100 99 97 98 99 98 98 98 93 90 90 87 84 77 63 69 72 70 74 72 67 62
41 44 51 100 97 91 99 97 97 95 96 90 88 88 92 93 90 89 88 85 84 83 85 79 76 74 73 73 89 86 94 96 89 85 83 76 72 78 71 83 81 83 78
69 80 88 100 100 100 100 100 100 97 93 88 85 80 80 82 82 74 76 74 75 71 61 70 66 60 64 62 65 68 65 64 53 77 86 79 75 76 78 76 70 62 86
96 99 99 96 98 99 94 92 89 77 68 61 58 52 50 56 53 51 44 33 28 28 27 29 38 39 39 48 49 50 45 48 46 46 68 82 76 66 78 73 76 63 88
92 89 87 90 90 87 80 71 59 55 49 41 40 24 28 39 29 24 20 18 26 32 36 36 31 29 29 26 24 21 23 28 36 42 43 44 68 81 81 86 96 92 88
84 77 76 74 68 62 56 54 57 52 40 29 19 20 25 29 30 30 30 32 36 36 34 33 38 41 45 46 42 29 23 21 21 28 36 39 45 48 66 77 77 84 88
87 84 75 66 61 58 57 54 48 43 23 29 42 45 46 45 43 40 39 44 45 42 44 53 49 52 48 49 44 36 26 22 25 30 30 29 34 37 38 40 58 75 80
73 73 69 62 59 52 47 46 44 35 40 44 51 54 52 48 40 36 36 38 40 40 49 58 63 55 59 69 54 51 33 25 33 48 51 46 39 42 41 39 40 41 59
57 55 55 53 51 47 43 40 40 39 46 49 52 56 46 36 31 33 37 39 45 51 67 74 75 70 70 78 78 70 48 52 53 48 52 49 46 55 56 52 54 57 80
49 49 48 47 48 48 45 44 37 43 52 54 60 55 34 29 31 40 49 55 54 42 42 67 78 78 82 81 88 86 92 68 61 48 55 53 53 49 44 46 52 78 78
45 45 44 43 41 41 42 39 44 51 49 56 54 39 35 40 43 45 50 54 54 51 55 65 69 80 86 79 76 91 94 94 80 65 56 59 56 54 53 54 55 51 50
45 47 44 40 39 39 41 45 50 54 61 57 50 45 48 50 49 49 50 56 57 54 58 67 70 72 73 76 74 81 79 86 92 91 68 65 61 57 56 54 51 49 49
45 45 43 43 43 47 48 50 56 55 56 56 54 51 52 54 54 51 52 56 57 57 58 69 75 76 76 77 78 82 84 84 76 96 90 80 75 73 66 61 57 55 52
48 46 45 44 49 48 48 56 50 58 60 60 60 61 65 71 69 58 56 56 53 54 58 64 69 78 81 81 82 83 85 93 91 94 85 81 83 79 75 69 62 58 51

GFSSE_925_rhum_261.txt.gz
RH
55 58 56 56 42 37 34 29 27 32 42 48 50 50 51 56 60 63 62 59 60 60 59 60 60 54 55 53 55 58 58 60 70 75 75 75 77 76 81 82 78 79 83
49 58 54 57 46 39 35 34 31 30 37 47 55 60 61 59 54 49 51 55 60 59 59 56 51 49 56 56 58 60 61 62 64 71 71 75 78 62 65 72 75 78 79
47 48 47 52 48 42 38 37 36 34 30 33 42 46 49 51 48 44 46 50 56 58 56 52 44 43 50 55 58 63 66 66 65 70 75 75 84 75 57 64 72 75 75
41 43 45 52 50 44 43 40 39 38 35 30 28 34 38 40 42 44 47 50 51 49 44 39 37 35 41 49 56 66 71 68 65 74 68 77 78 74 60 55 59 73 77
43 47 49 51 51 46 46 45 41 41 39 36 32 33 38 41 45 51 56 58 58 59 55 48 43 40 41 47 51 57 72 76 81 87 88 84 76 68 65 58 49 57 69
48 61 60 57 56 51 52 55 49 46 48 49 47 46 51 56 59 57 58 55 54 52 53 50 44 40 39 45 51 56 64 75 79 80 83 89 94 88 67 64 54 51 66
59 60 63 66 70 64 66 68 63 54 52 56 59 56 52 49 55 60 58 58 54 53 50 51 51 47 41 39 46 52 58 59 63 68 73 79 78 84 68 71 68 56 56
52 57 64 66 66 71 72 73 74 68 64 63 69 66 63 61 59 58 60 58 59 59 59 56 56 58 55 48 43 46 50 58 60 60 63 78 78 84 67 65 74 78 61
52 40 36 40 57 61 70 74 75 74 71 75 76 73 72 71 69 66 65 63 64 67 66 65 65 64 62 60 58 52 49 50 52 56 57 66 66 81 77 67 68 80 71
42 40 37 35 34 49 58 68 74 70 68 65 63 62 62 65 64 64 63 68 77 80 76 74 73 70 71 69 63 61 59 57 57 51 44 48 52 78 85 74 67 71 77
39 34 40 42 40 43 50 52 51 56 58 58 57 57 58 58 59 62 66 70 81 87 77 81 82 82 84 77 73 69 68 63 65 66 62 55 49 47 63 77 76 64 65
44 47 58 54 48 51 60 65 66 61 56 63 69 76 69 72 71 80 92 87 91 100 94 93 95 89 95 98 96 89 83 80 79 77 74 70 71 59 57 70 80 70 62
70 61 81 84 73 90 86 81 71 74 98 95 98 99 98 96 91 79 76 87 90 92 95 95 87 93 88 83 96 99 99 90 92 86 81 76 72 67 64 66 79 77 71
70 93 96 92 82 98 100 99 79 90 98 98 96 96 97 93 90 87 84 78 74 72 74 84 84 84 83 78 75 83 73 78 69 65 83 82 79 72 71 73 76 84 80
89 89 95 100 99 98 98 99 99 94 88 75 70 71 70 69 59 47 37 35 24 20 23 34 33 40 44 50 64 66 64 62 70 53 59 84 81 74 78 74 73 80 83
94 96 95 92 98 99 97 88 78 66 50 36 31 36 39 32 25 21 21 25 27 29 30 28 25 24 26 32 32 35 33 35 46 51 50 52 72 82 70 78 78 67 77
91 89 86 91 93 79 73 61 54 42 24 16 22 24 30 37 37 36 36 35 34 32 30 31 30 31 30 30 30 28 28 31 32 27 27 41 44 54 68 72 83 94 89
83 81 76 67 60 60 59 52 39 22 23 39 44 46 46 43 40 39 40 43 44 43 47 48 49 43 42 44 38 30 26 25 27 28 32 28 31 40 45 61 79 83 94
77 66 62 61 59 58 51 44 26 28 40 51 53 50 45 37 34 35 39 41 44 48 52 54 56 60 64 58 44 39 32 31 30 36 53 50 44 36 37 41 43 43 59
80 72 67 59 54 50 46 41 32 37 46 54 56 49 39 34 33 33 37 38 42 42 47 56 58 56 68 73 66 51 42 57 60 57 57 53 51 55 59 49 42 37 38
63 60 58 53 50 45 41 36 36 46 50 58 58 36 34 38 40 40 39 42 45 50 57 58 52 56 66 67 78 63 41 52 60 59 59 58 53 53 52 51 75 88 68
51 50 50 47 46 45 43 42 39 47 52 59 45 39 45 47 48 49 50 51 54 53 53 60 65 72 74 70 78 89 95 72 65 58 67 63 59 54 54 54 57 72 82
45 44 42 43 46 47 48 42 42 50 53 53 44 47 50 51 52 52 53 56 56 56 57 66 75 78 81 75 74 96 95 95 80 66 55 66 61 63 55 52 54 52 52
44 45 44 42 40 39 40 42 45 49 57 54 51 53 60 62 65 59 55 57 55 54 54 58 65 77 84 85 82 78 81 88 98 88 69 72 72 75 74 66 61 60 56
46 49 46 44 44 46 47 49 52 56 57 58 62 64 70 73 73 73 61 60 65 68 70 70 69 69 71 81 87 89 88 89 83 98 86 70 69 74 80 79 71 66 63
50 52 48 50 50 52 54 57 58 64 68 72 80 83 80 76 71 71 71 73 74 74 75 76 75 75 77 81 78 78 86 95 90 93 92 83 82 75 73 74 77 66 66

GFSSE_925_rhum_264.txt.gz
RH
57 59 47 43 37 28 25 26 29 31 36 42 42 44 51 62 69 67 61 56 55 50 48 49 48 56 57 58 63 63 70 86 89 91 98 96 77 78 80 74 76 81 78
57 58 48 46 39 32 29 26 28 31 33 37 40 41 46 54 58 58 54 52 52 51 47 46 50 59 60 65 69 66 69 82 90 90 89 92 79 73 72 72 74 83 84
60 61 54 49 44 37 34 31 30 35 38 40 43 46 47 45 39 39 47 57 58 56 53 47 46 55 59 64 67 67 65 66 73 77 78 83 90 74 75 73 70 74 80
57 59 58 56 51 44 40 38 36 35 43 48 53 63 65 64 63 63 62 61 61 58 50 45 45 50 54 59 64 69 68 69 72 73 74 80 87 67 66 70 67 65 75
54 56 60 59 53 49 45 45 46 45 44 49 58 55 57 60 64 63 60 60 60 59 57 48 42 43 50 56 60 75 78 76 85 90 86 83 78 76 66 68 69 66 65
55 57 61 65 57 54 54 51 50 51 51 50 50 56 59 60 65 64 66 64 62 62 62 58 50 46 47 51 56 60 75 84 87 88 88 91 94 86 70 70 75 77 67
60 60 60 66 62 61 64 61 59 60 60 62 63 62 65 68 64 67 69 68 67 66 65 66 62 58 52 49 50 52 54 61 70 74 76 80 85 87 86 64 65 65 65
60 66 64 59 55 59 68 73 68 66 66 73 70 66 63 61 62 59 58 64 67 67 67 69 72 74 72 67 61 56 54 55 58 58 64 69 79 83 80 68 63 61 63
49 49 53 54 52 49 57 67 69 66 68 70 70 65 61 59 60 61 64 65 64 65 65 65 66 71 76 79 77 77 73 65 56 53 57 61 71 72 92 73 70 72 71
53 53 56 59 62 64 56 56 66 66 67 62 60 62 63 66 69 64 54 53 57 63 66 67 75 73 76 78 78 82 84 88 83 71 58 50 55 59 87 90 77 71 76
73 68 68 63 64 64 58 49 49 58 66 71 76 73 62 64 73 88 97 97 83 73 65 83 90 90 87 73 71 83 98 99 98 93 82 75 70 56 52 83 86 79 72
61 71 74 80 80 68 62 68 54 63 67 74 95 100 100 100 99 97 94 92 92 93 89 82 84 88 88 82 71 78 89 70 99 99 96 78 70 71 65 56 65 77 80
100 99 99 100 100 93 93 94 92 87 86 89 92 97 96 92 89 86 81 78 71 64 66 70 72 76 79 84 82 82 86 89 91 86 76 99 74 78 65 70 59 70 76
84 99 100 100 99 98 100 93 93 86 84 83 81 87 81 62 39 22 22 27 27 30 31 36 31 27 25 41 48 53 74 80 76 73 68 69 96 100 92 73 69 73 84
99 100 100 100 99 99 98 95 87 79 76 77 66 53 37 27 26 32 38 40 39 36 32 29 30 30 32 31 33 35 31 34 34 45 59 58 64 90 92 82 97 76 68
100 100 100 98 95 88 80 69 60 47 38 37 37 37 40 41 41 42 41 39 39 41 43 43 43 40 38 35 32 30 28 27 28 31 34 33 42 51 80 82 83 85 81
92 90 86 80 77 71 58 38 23 29 35 44 50 48 41 35 31 28 25 26 30 30 30 32 33 33 33 31 29 28 30 32 36 34 34 42 35 33 43 54 76 83 86
78 73 69 65 60 52 38 25 36 48 53 52 45 32 28 27 26 26 25 30 32 30 33 34 36 34 36 32 25 22 29 46 46 57 56 53 54 49 32 39 44 61 75
62 60 60 61 55 46 28 33 48 55 56 48 34 32 38 39 36 32 33 37 36 35 36 40 42 51 54 41 34 23 38 64 64 55 58 55 55 54 58 56 44 42 43
73 65 60 58 50 42 33 40 48 56 59 39 34 41 45 47 49 45 41 41 41 40 45 44 49 55 67 65 50 29 34 48 64 47 56 54 56 55 55 56 60 82 71
60 57 53 50 49 43 40 40 43 54 57 38 44 47 48 52 53 55 56 54 49 48 54 62 64 68 70 72 67 57 41 39 72 31 73 49 60 50 47 52 55 55 58
53 53 52 48 47 45 44 40 44 54 55 45 51 53 56 60 61 57 59 60 60 59 60 63 70 76 77 80 90 93 91 70 52 54 52 68 57 64 57 49 51 57 60
49 48 49 49 51 51 47 43 49 54 52 51 55 63 72 70 70 64 61 62 66 70 71 71 73 78 88 75 79 81 85 90 84 67 62 65 61 65 54 55 47 46 51
51 49 42 43 41 42 43 44 50 57 58 67 70 77 75 72 72 68 65 70 73 74 74 77 78 80 82 84 80 84 86 94 88 81 71 72 72 75 68 61 57 47 50
51 47 43 42 44 46 50 53 57 60 71 78 79 76 74 71 70 72 74 74 71 70 67 66 68 74 81 88 90 96 96 95 87 98 83 73 75 81 82 74 71 62 48
53 50 46 51 58 62 61 64 70 76 81 79 74 70 68 66 62 56 54 52 49 49 48 47 51 52 58 59 77 88 99 98 95 93 86 80 76 75 80 79 78 70 64